View from above orbital plane
|
View from above satellite
|
Ground track
|
The orbit data is extracted from the following two-line orbital elements,
1 39026U 12072A 21102.56271445 .00001903 00000-0 67237-4 0 9994
2 39026 97.2430 97.0541 0034047 258.7845 100.9568 15.29904078462950
Epoch (UTC): | 12 April 2021 13:30:18 |
Eccentricity: | 0.0034047 |
inclination: | 97.2430° |
perigee height: | 453 km |
apogee height: | 499 km |
right ascension of ascending node: | 97.0541° |
argument of perigee: | 258.7845° |
revolutions per day: | 15.29904078 |
mean anomaly at epoch: | 100.9568° |
orbit number at epoch: | 46295 |
The dashed part of the orbit path shows where the satellite is in the earth's shadow,
|
|